Temp
11 11 11 10 10 9 9 9 9 9 9 9 9 9 10 10 10 10 10 9 10 10 10 10 10 10 9 9 9 9 8 9 10 10 10 10 11 10 11 11 11 11 11
10 11 10 10 10 10 10 9 10 10 9 9 10 10 10 10 10 10 10 10 10 10 10 10 10 10 10 10 10 10 9 9 8 8 10 10 10 9 9 9 10 11 10
8 9 10 9 10 10 10 10 10 10 10 10 9 10 10 10 10 10 10 10 10 10 10 10 11 10 10 10 10 10 10 9 9 10 9 8 9 9 8 9 9 9 11
9 9 9 9 9 9 8 9 9 10 10 9 9 10 10 10 9 10 10 9 10 10 10 9 9 9 10 9 9 9 9 9 9 9 9 8 9 9 9 9 10 10 10
9 9 8 9 8 8 8 8 9 9 10 10 9 9 9 10 10 9 9 9 9 8 9 9 9 9 8 9 9 9 9 10 10 10 10 10 10 10 10 10 10 10 10
9 9 9 8 8 8 9 8 9 8 8 9 9 9 10 10 9 9 8 8 8 8 8 9 9 9 9 9 9 9 9 9 9 9 9 10 10 10 10 10 10 10 11
9 9 8 8 8 8 7 8 9 8 8 8 9 9 9 9 8 9 9 9 8 8 7 8 9 9 9 8 9 9 9 9 9 9 10 9 9 9 10 10 10 10 10
9 8 8 8 8 8 8 8 8 8 8 8 8 8 7 8 8 8 8 8 9 9 9 8 9 8 8 8 8 9 9 9 9 9 9 9 9 9 10 10 10 10 10
9 8 8 8 8 7 7 8 8 7 8 8 7 7 7 7 7 7 8 8 8 8 8 8 8 8 8 8 8 8 8 8 8 8 8 9 9 9 9 10 10 10 10
9 8 8 8 8 8 8 8 8 7 7 7 6 6 6 6 6 6 7 7 8 8 7 8 8 7 7 7 8 8 8 8 8 8 7 8 8 9 9 9 9 9 9
8 8 8 8 8 8 8 8 8 8 7 7 6 6 6 6 5 6 6 7 7 7 8 8 6 6 7 7 7 7 7 8 8 8 8 7 8 8 8 8 9 9 10
8 8 8 8 7 8 8 8 8 8 7 7 7 6 6 6 6 6 6 6 6 7 8 6 5 6 6 7 7 7 7 8 8 8 8 8 8 8 8 8 8 8 9
7 7 6 7 6 7 7 7 7 7 7 7 7 7 7 6 6 6 6 6 7 8 7 5 5 5 6 7 7 8 8 8 8 8 8 8 8 8 8 8 8 8 8
7 6 6 6 6 6 6 6 6 7 7 6 7 6 6 6 6 6 7 7 7 7 7 6 6 6 7 7 7 7 7 7 7 7 7 7 7 7 7 7 8 8 8
6 6 6 6 6 6 6 5 5 5 5 6 6 6 7 6 7 7 7 7 7 7 7 7 6 6 6 6 6 6 6 6 6 6 6 6 6 6 7 6 7 7 7
5 5 5 5 4 4 4 4 5 5 6 6 6 6 7 6 6 6 6 6 6 6 6 6 6 6 5 5 5 5 5 5 5 5 5 5 5 5 6 6 6 6 6
4 4 4 4 4 4 4 5 5 5 5 5 5 5 5 5 5 5 5 5 5 5 5 4 4 4 4 4 4 4 4 4 4 5 5 5 5 5 5 5 5 5 5
2 3 2 3 3 4 4 4 4 4 4 4 4 4 4 4 4 4 4 4 4 4 4 3 4 4 4 4 4 4 4 4 4 4 4 4 4 4 4 4 4 5 5
1 1 2 2 2 3 3 4 3 4 4 3 3 3 3 3 3 3 3 3 3 3 3 3 3 3 3 3 3 3 3 3 3 2 2 3 3 3 3 3 3 3 3
1 1 0 0 1 1 2 2 3 3 2 2 2 2 2 2 2 2 2 2 2 2 2 2 2 2 2 2 2 2 2 2 2 2 2 2 2 2 2 2 3 3 3
1 1 1 1 1 1 1 2 2 2 2 2 2 1 1 1 1 1 1 1 1 1 1 1 1 1 1 1 1 1 1 1 1 1 1 1 1 1 1 1 2 2 2
1 1 1 1 1 1 1 1 0 0 0 0 1 0 0 1 1 1 0 0 0 0 0 -0 -0 -0 -0 -0 -0 -0 -0 0 0 0 0 0 0 0 1 1 0 0 0
-0 -0 -0 -0 -0 -0 -0 -0 -1 -1 -1 -1 -0 -0 -1 -1 -1 -1 -1 -1 -1 -1 -1 -1 -1 -1 -1 -1 -1 -1 -1 -1 -0 -0 -0 -0 -0 -0 -0 -0 -1 -1 -1
-2 -1 -1 -1 -1 -1 -1 -2 -2 -2 -2 -2 -2 -2 -1 -1 -2 -2 -2 -2 -2 -2 -2 -2 -2 -2 -2 -2 -1 -1 -1 -1 -1 -1 -1 -1 -1 -1 -1 -2 -3 -3 -3
-3 -3 -2 -2 -2 -2 -2 -2 -2 -3 -2 -2 -3 -3 -3 -3 -3 -3 -2 -2 -2 -2 -2 -2 -2 -2 -2 -2 -2 -2 -2 -2 -2 -2 -3 -3 -3 -4 -4 -5 -5 -5 -5
-3 -4 -3 -3 -4 -3 -3 -3 -2 -3 -3 -4 -3 -4 -4 -4 -4 -3 -3 -3 -2 -3 -3 -3 -3 -2 -3 -3 -3 -3 -3 -3 -3 -4 -5 -6 -6 -6 -6 -7 -7 -8 -8
Height
3206 3210 3214 3217 3219 3221 3223 3226 3230 3232 3233 3233 3237 3237 3237 3236 3236 3237 3237 3239 3241 3243 3244 3245 3246 3249 3250 3251 3252 3251 3251 3249 3248 3248 3247 3246 3246 3246 3244 3241 3239 3235 3233
3205 3208 3211 3214 3217 3219 3221 3223 3226 3231 3232 3234 3236 3236 3236 3235 3236 3236 3237 3236 3237 3239 3241 3242 3243 3244 3245 3247 3248 3248 3248 3246 3245 3245 3244 3244 3244 3242 3241 3239 3237 3235 3233
3197 3204 3208 3209 3214 3217 3219 3221 3223 3225 3228 3230 3231 3232 3233 3234 3234 3234 3234 3234 3234 3234 3235 3237 3239 3240 3241 3242 3242 3243 3243 3243 3243 3243 3242 3242 3242 3240 3238 3237 3237 3234 3233
3200 3204 3207 3209 3212 3212 3217 3218 3220 3222 3224 3227 3228 3229 3230 3231 3231 3231 3233 3236 3236 3234 3232 3233 3235 3237 3239 3242 3243 3243 3243 3244 3243 3243 3242 3241 3239 3238 3236 3235 3234 3233 3230
3197 3200 3203 3205 3208 3212 3215 3216 3217 3219 3220 3222 3225 3226 3227 3227 3229 3230 3231 3231 3236 3239 3236 3234 3232 3235 3238 3238 3240 3240 3241 3240 3241 3240 3239 3238 3238 3237 3235 3233 3231 3229 3228
3194 3196 3196 3198 3200 3202 3206 3210 3210 3213 3214 3217 3219 3219 3220 3225 3225 3225 3228 3230 3233 3202 3229 3235 3229 3233 3235 3237 3237 3237 3237 3236 3237 3236 3236 3235 3234 3233 3232 3230 3227 3226 3224
3188 3190 3191 3193 3193 3194 3196 3198 3195 3204 3208 3209 3213 3216 3219 3220 3220 3221 3223 3226 3227 3228 3230 3227 3227 3231 3233 3235 3236 3236 3236 3235 3233 3233 3233 3231 3230 3229 3227 3226 3224 3222 3220
3184 3186 3188 3188 3187 3188 3190 3192 3195 3198 3201 3203 3206 3212 3213 3215 3216 3216 3216 3216 3218 3220 3221 3222 3225 3227 3229 3231 3231 3232 3232 3231 3231 3230 3229 3227 3225 3223 3223 3221 3219 3218 3217
3178 3182 3185 3186 3185 3185 3186 3187 3189 3191 3194 3197 3200 3205 3208 3212 3213 3213 3214 3215 3218 3218 3219 3220 3222 3224 3225 3226 3226 3227 3227 3227 3226 3225 3224 3223 3220 3218 3217 3216 3214 3213 3211
3175 3179 3182 3183 3184 3185 3186 3187 3189 3187 3188 3192 3194 3198 3201 3205 3209 3211 3212 3213 3215 3216 3216 3218 3218 3219 3219 3221 3222 3222 3222 3222 3221 3220 3218 3217 3215 3212 3213 3212 3209 3207 3205
3169 3174 3178 3180 3181 3183 3184 3186 3187 3189 3190 3190 3193 3196 3197 3199 3203 3207 3208 3210 3211 3210 3211 3214 3214 3213 3214 3215 3216 3216 3216 3215 3214 3213 3211 3209 3209 3206 3204 3204 3202 3201 3200
3165 3170 3174 3176 3177 3179 3182 3183 3185 3186 3186 3188 3190 3192 3193 3194 3199 3202 3203 3205 3207 3206 3205 3204 3206 3207 3207 3209 3210 3209 3208 3208 3207 3206 3205 3202 3202 3200 3199 3197 3195 3194 3193
3161 3167 3170 3171 3174 3176 3178 3179 3182 3184 3185 3186 3187 3189 3191 3193 3196 3198 3200 3201 3200 3201 3200 3199 3201 3201 3202 3203 3202 3202 3202 3201 3200 3199 3197 3195 3194 3193 3192 3191 3190 3188 3186
3158 3161 3163 3166 3169 3172 3171 3172 3179 3181 3182 3183 3185 3187 3189 3191 3191 3193 3195 3195 3195 3195 3195 3195 3196 3196 3196 3196 3195 3195 3195 3194 3193 3191 3190 3189 3187 3186 3184 3184 3182 3180 3179
3152 3154 3156 3160 3163 3164 3167 3171 3173 3175 3177 3179 3182 3183 3184 3187 3187 3187 3189 3189 3190 3189 3190 3189 3190 3190 3190 3190 3189 3188 3188 3187 3186 3185 3184 3183 3181 3179 3177 3175 3173 3171 3169
3146 3148 3152 3155 3155 3159 3161 3165 3167 3171 3172 3174 3176 3177 3179 3181 3181 3182 3183 3182 3183 3182 3182 3183 3183 3183 3183 3183 3183 3182 3181 3181 3179 3179 3176 3174 3173 3170 3169 3167 3165 3163 3160
3144 3147 3149 3149 3153 3156 3158 3160 3162 3165 3166 3168 3170 3172 3172 3174 3174 3174 3175 3175 3175 3176 3176 3176 3177 3177 3177 3177 3176 3175 3174 3173 3172 3170 3168 3166 3164 3162 3160 3157 3155 3152 3151
3142 3144 3147 3147 3148 3152 3153 3155 3158 3158 3159 3161 3163 3164 3166 3167 3168 3168 3169 3169 3169 3170 3169 3170 3171 3172 3171 3170 3170 3168 3167 3164 3163 3161 3158 3157 3155 3152 3149 3147 3143 3140 3138
3141 3144 3146 3147 3149 3151 3152 3151 3150 3151 3154 3156 3157 3159 3161 3161 3162 3162 3163 3164 3165 3165 3163 3163 3165 3164 3163 3163 3161 3160 3159 3156 3155 3152 3150 3148 3146 3144 3140 3136 3132 3131 3126
3139 3141 3141 3144 3146 3147 3148 3148 3148 3149 3150 3152 3153 3155 3156 3157 3157 3159 3159 3158 3158 3157 3157 3158 3160 3158 3157 3155 3153 3152 3151 3147 3145 3143 3141 3139 3136 3133 3129 3125 3122 3118 3113
3130 3134 3137 3138 3140 3139 3139 3140 3141 3145 3146 3147 3149 3150 3152 3152 3152 3153 3153 3152 3151 3151 3152 3152 3152 3149 3147 3146 3145 3145 3142 3139 3137 3134 3132 3130 3126 3122 3118 3114 3109 3105 3100
3126 3128 3129 3131 3133 3133 3135 3136 3136 3136 3136 3136 3139 3142 3143 3144 3144 3146 3146 3145 3144 3144 3145 3144 3143 3141 3141 3140 3139 3136 3133 3131 3128 3125 3122 3118 3114 3110 3105 3100 3096 3091 3085
3123 3124 3125 3126 3127 3127 3129 3130 3130 3132 3133 3134 3133 3136 3137 3137 3136 3137 3138 3137 3137 3137 3137 3138 3136 3135 3134 3133 3131 3128 3125 3122 3119 3116 3112 3107 3102 3098 3093 3088 3083 3077 3072
3118 3119 3119 3120 3121 3121 3123 3124 3124 3125 3126 3127 3127 3126 3129 3129 3130 3130 3131 3130 3131 3131 3130 3129 3129 3128 3126 3123 3121 3118 3114 3111 3107 3103 3100 3095 3090 3085 3080 3075 3071 3065 3058
3111 3113 3114 3114 3115 3116 3117 3117 3118 3119 3120 3121 3122 3122 3121 3121 3123 3123 3122 3122 3123 3123 3122 3120 3118 3117 3116 3114 3111 3108 3105 3102 3098 3093 3090 3085 3080 3075 3070 3065 3060 3054 3047
3103 3104 3104 3105 3106 3107 3108 3110 3111 3113 3113 3113 3115 3116 3116 3116 3115 3115 3115 3115 3115 3115 3114 3113 3111 3109 3108 3105 3103 3099 3095 3092 3089 3085 3081 3076 3071 3065 3060 3055 3049 3042 3037
Wind_Speed
16 15 14 14 15 15 14 11 13 13 9 8 9 8 7 5 4 5 8 8 9 9 11 12 9 11 12 15 15 16 16 17 19 14 15 18 18 16 13 16 13 15 16
11 11 9 13 15 14 15 15 14 13 13 11 12 10 9 7 7 7 7 7 5 6 7 9 8 8 12 12 12 14 13 10 15 13 11 8 11 13 17 17 18 19 15
12 6 13 17 10 11 12 15 16 16 15 14 13 14 12 11 10 10 10 9 8 8 8 7 6 7 7 6 7 9 10 11 12 12 11 9 7 19 13 13 18 21 16
16 18 19 16 19 18 17 16 15 17 18 18 14 15 14 12 13 13 13 12 11 10 8 7 6 7 8 6 8 8 10 10 12 12 11 11 10 12 13 14 15 14 16
23 20 21 23 25 27 26 23 19 16 19 20 18 17 16 17 17 16 16 16 12 11 10 10 11 9 10 9 9 10 11 11 12 12 12 12 14 13 15 16 17 17 17
26 16 26 32 35 32 31 32 29 24 21 21 23 23 22 17 17 18 12 13 15 15 7 11 11 8 11 12 10 10 12 11 11 13 13 15 15 16 17 19 20 20 20
19 26 18 21 17 22 33 37 39 29 28 24 22 22 20 18 15 17 17 18 16 12 11 11 12 11 12 10 11 13 15 15 16 17 17 17 17 18 20 19 21 22 23
28 22 21 24 24 20 23 27 33 25 31 30 23 20 21 18 16 16 18 17 16 16 15 14 14 13 14 15 15 15 16 18 20 20 20 20 22 23 23 23 24 22 22
27 24 17 12 8 9 7 17 26 31 34 34 30 25 21 16 14 16 17 16 15 15 16 18 19 19 18 18 18 18 17 18 20 21 22 23 24 24 24 23 24 24 23
24 21 20 13 10 9 5 5 12 19 13 19 26 29 28 31 19 18 18 17 12 13 18 20 23 23 21 19 19 19 19 20 21 22 23 27 29 28 23 21 23 24 26
23 23 19 19 16 13 10 7 10 9 8 10 13 17 20 22 25 22 18 18 21 24 25 21 22 25 22 20 18 19 22 22 21 22 25 28 28 30 33 27 30 30 29
28 26 25 23 19 18 15 10 11 12 13 11 10 9 8 15 25 27 27 21 23 23 25 22 23 26 25 18 18 19 21 22 24 24 24 24 25 25 23 25 26 28 27
30 28 26 22 21 23 18 18 16 16 16 16 16 16 14 13 15 15 15 16 17 17 16 16 15 18 18 18 23 26 27 25 25 24 22 23 26 26 25 25 23 23 24
34 34 34 29 29 24 22 24 22 19 17 16 15 12 13 13 15 16 18 19 19 19 19 20 21 21 20 21 22 23 21 21 20 21 22 22 23 25 26 27 27 26 26
32 29 34 31 33 31 28 21 19 19 18 18 17 16 17 18 19 20 21 21 22 22 23 22 21 20 20 20 20 20 20 20 21 22 23 25 26 27 28 29 30 31 32
24 25 28 28 21 20 18 17 18 20 21 21 20 21 21 21 21 21 21 20 20 20 21 20 19 18 19 20 20 21 22 23 24 25 27 28 30 31 32 32 33 34 35
14 17 18 19 18 17 18 19 20 21 21 21 21 22 22 22 21 20 19 19 19 20 17 17 18 19 20 22 23 24 24 25 26 28 29 31 32 33 34 35 36 38 39
8 12 20 20 16 17 17 18 20 21 20 19 20 20 19 18 18 17 17 16 17 18 18 18 19 22 22 23 24 26 27 27 28 29 30 32 33 34 36 37 38 39 41
5 6 9 10 13 16 17 17 17 18 18 17 17 17 17 16 16 17 17 18 18 19 20 20 22 23 24 25 26 27 28 28 29 30 31 33 33 35 36 38 40 42 44
16 23 24 19 20 15 13 16 16 16 16 16 18 17 17 17 19 19 20 20 21 20 21 22 23 24 24 25 26 27 28 29 30 31 32 34 36 38 40 42 44 46 46
24 23 25 26 25 24 26 29 28 25 23 23 22 19 20 20 20 20 20 19 20 21 21 23 23 24 24 24 25 26 27 29 30 32 34 36 38 40 42 44 45 46 47
22 21 21 23 22 23 24 23 22 21 21 20 20 18 20 20 22 22 21 21 21 21 22 23 23 24 24 25 25 26 27 28 30 33 35 37 39 41 44 46 47 48 51
16 17 19 19 20 21 19 20 20 20 20 21 24 20 19 21 22 21 21 21 21 21 21 21 22 24 24 26 26 27 27 30 32 35 38 40 41 43 44 46 48 49 50
15 17 18 17 17 17 17 16 18 18 18 19 21 24 21 21 22 23 22 22 22 21 22 23 24 25 25 26 28 30 31 34 36 39 40 42 44 46 47 48 48 48 48
23 22 20 22 21 21 20 19 17 18 19 18 21 23 25 25 23 23 24 22 22 22 23 25 25 26 25 28 29 32 35 36 38 39 40 41 42 44 45 45 44 43 41
21 25 25 25 26 29 29 25 24 26 27 27 25 23 23 27 28 27 25 26 26 25 25 27 28 29 27 29 29 32 35 36 37 37 36 37 39 40 39 38 36 34 34
Wind_Direction
209 205 210 217 223 226 231 238 229 226 215 211 236 228 218 221 214 213 220 243 228 239 247 257 254 244 251 254 269 270 269 285 298 301 297 291 308 315 337 351 345 357 4
198 197 202 224 228 231 239 242 249 231 229 234 229 227 226 219 222 227 230 231 220 228 244 261 261 260 253 259 267 267 274 265 290 315 314 338 351 6 346 351 355 0 5
222 226 236 217 246 239 239 246 248 247 243 245 234 235 234 236 238 231 236 243 237 229 235 247 262 277 273 286 295 306 305 318 319 329 335 325 19 326 326 338 329 328 350
235 251 257 268 271 237 263 255 252 248 244 245 240 235 237 244 244 234 235 245 242 242 241 255 270 282 292 299 291 297 302 301 306 310 307 306 326 295 303 315 334 330 345
239 246 250 271 264 253 251 253 259 250 245 244 246 243 242 245 250 253 242 236 233 247 258 262 257 269 284 275 283 293 296 301 310 315 324 324 323 319 323 325 324 330 332
264 250 254 263 262 255 240 251 246 248 250 241 240 242 244 251 254 261 264 266 246 231 269 278 268 287 276 286 288 289 288 294 300 304 308 311 314 314 316 317 319 321 324
235 246 267 266 268 270 256 246 232 242 247 238 243 247 255 254 251 255 259 253 266 283 268 270 290 283 282 289 292 293 297 301 299 300 307 310 305 302 304 308 311 316 322
257 260 265 277 267 259 252 250 250 245 253 238 240 237 245 247 248 253 258 267 269 280 288 284 282 277 279 282 283 289 294 298 304 306 307 304 303 301 304 308 311 314 316
254 249 251 253 232 215 226 229 233 243 248 237 228 223 234 242 245 247 253 257 264 268 270 275 273 272 272 271 277 283 286 292 298 302 304 303 304 302 301 303 303 309 308
239 227 225 224 205 199 222 252 238 256 255 250 241 239 236 237 253 244 257 253 248 271 281 282 275 272 267 269 276 280 286 293 294 294 293 295 294 299 304 314 312 307 309
217 216 223 233 228 229 236 216 207 223 250 249 239 242 243 245 225 229 241 258 281 290 293 291 276 261 259 260 267 278 283 284 287 290 287 290 298 297 296 301 301 304 311
214 219 229 236 239 241 242 235 233 228 217 221 227 234 247 235 226 239 258 269 271 283 294 293 283 259 255 256 277 288 283 285 290 293 289 292 294 292 293 292 295 298 301
221 228 233 251 249 255 235 235 227 225 226 230 235 240 237 234 236 237 240 246 256 272 288 298 272 259 258 260 276 289 284 292 290 290 293 291 293 295 295 297 301 300 298
237 239 242 249 248 232 224 220 223 241 242 247 248 235 229 231 240 250 260 267 271 274 273 274 271 275 283 285 282 281 284 284 286 288 290 292 291 293 294 298 298 297 296
238 237 225 239 223 219 222 225 224 224 227 234 243 247 246 248 253 255 258 264 268 269 269 268 272 279 281 281 282 285 287 291 292 295 296 296 296 296 299 299 298 299 299
222 220 226 219 220 221 219 223 226 235 237 241 245 249 252 253 254 259 263 264 263 266 270 275 276 281 283 285 287 289 291 292 294 295 295 296 297 298 298 297 297 297 296
233 233 226 222 218 227 232 234 238 240 245 249 253 256 258 261 262 264 267 269 271 273 274 277 281 283 286 288 289 290 291 291 292 292 293 294 296 298 299 300 300 300 300
225 239 251 248 250 236 230 234 243 244 245 249 253 257 259 262 263 263 264 265 271 275 280 283 283 283 285 287 289 290 292 295 297 298 300 301 302 302 302 301 302 302 301
200 266 275 280 274 266 258 250 244 249 250 252 251 253 256 258 261 263 264 266 268 270 276 280 284 286 289 291 293 295 295 298 299 300 302 302 303 303 303 304 303 302 301
274 255 274 279 270 273 281 279 274 269 264 257 257 254 254 251 252 255 257 261 265 271 275 278 280 283 285 287 289 291 293 296 299 300 302 303 303 302 302 302 301 300 300
236 248 255 261 257 251 246 247 248 250 256 262 262 256 253 258 260 260 262 262 269 273 276 279 281 284 287 289 290 292 294 297 299 300 300 300 300 300 300 301 301 302 303
263 262 254 252 252 252 250 249 250 249 250 250 252 247 254 259 264 267 271 274 278 280 282 282 284 284 285 287 289 291 293 294 296 298 300 301 302 303 303 304 305 306 307
259 258 255 253 251 251 248 248 250 250 252 256 263 256 259 265 268 272 274 276 277 276 276 278 280 281 282 283 285 289 294 298 301 303 304 305 306 305 305 307 308 309 310
270 268 263 251 254 260 259 258 260 262 265 267 269 276 276 271 270 271 272 272 275 277 279 280 281 282 286 290 294 298 303 306 308 310 311 311 310 310 309 310 311 311 311
273 266 273 267 271 265 265 264 261 261 261 261 264 270 279 279 273 273 277 278 282 287 288 288 287 289 296 300 305 306 307 308 309 311 311 308 309 311 312 312 311 312 312
264 263 269 261 271 276 277 273 267 263 260 264 264 258 266 269 275 280 282 286 290 289 291 291 292 293 296 297 302 306 308 310 309 309 310 311 314 316 315 315 318 320 320